K2MIT Weather Reports


Display with metric or nautical units.
time (UTC)temp
F
wind
direction
speed
MPH
gust
MPH
rain 1hr
in
rain 24hr
in
rain mn
in
humidity
%
barometer
mb
20260507134532 53 276 5.0 11.0 0.00 0.35 0.16 68 1010.5
20260507133035 55 309 3.0 9.0 0.00 0.35 0.16 68 1010.7
20260507131537 54 333 2.0 5.0 0.00 0.35 0.16 75 1010.6
20260507130041 52 260 2.0 7.0 0.00 0.35 0.16 80 1010.4
20260507124541 51 306 2.0 5.0 0.00 0.35 0.16 85 1010.8
20260507123038 49 0 0.0 4.0 0.00 0.35 0.16 88 1010.7
20260507121541 49 263 1.0 4.0 0.00 0.35 0.16 89 1010.5
20260507120034 49 352 2.0 4.0 0.00 0.35 0.16 89 1010.4
20260507114533 48 0 0.0 2.0 0.00 0.35 0.16 89 1010.3
20260507113038 48 0 0.0 2.0 0.00 0.35 0.16 89 1010.3
20260507111530 48 292 0.0 2.0 0.00 0.35 0.16 89 1010.0
20260507110032 48 271 0.0 0.0 0.00 0.35 0.16 89 1010.0
20260507104534 48 0 0.0 3.0 0.00 0.35 0.16 89 1009.7
20260507103033 48 0 2.0 4.0 0.00 0.35 0.16 89 1009.5
20260507101541 48 298 2.0 9.0 0.00 0.35 0.16 89 1009.1
20260507100035 48 298 3.0 9.0 0.01 0.35 0.16 89 1009.1
20260507094531 48 321 2.0 9.0 0.02 0.35 0.16 89 1009.2
20260507093039 48 293 2.0 8.0 0.03 0.35 0.16 89 1009.1
20260507091533 48 311 3.0 9.0 0.04 0.35 0.16 90 1009.1
20260507090034 48 338 2.0 9.0 0.05 0.34 0.15 90 1008.9
20260507084532 49 286 2.0 7.0 0.04 0.33 0.14 90 1009.2
20260507083041 49 352 2.0 6.0 0.05 0.32 0.13 90 1009.6
20260507081534 49 329 3.0 9.0 0.04 0.30 0.11 89 1009.3
20260507080035 49 302 4.0 9.0 0.04 0.29 0.10 89 1009.2
20260507074537 49 317 3.0 8.0 0.06 0.29 0.10 89 1009.1
20260507073030 50 336 2.0 10.0 0.04 0.27 0.08 89 1009.1
20260507071552 50 304 4.0 9.0 0.05 0.26 0.07 88 1008.9
20260507070038 50 309 3.0 9.0 0.05 0.25 0.06 88 1008.9
20260507064534 51 300 4.0 10.0 0.03 0.23 0.04 87 1009.0
20260507063039 51 13 2.0 6.0 0.04 0.23 0.04 87 1008.7
20260507061532 52 280 2.0 4.0 0.02 0.21 0.02 86 1008.6
20260507060030 52 280 2.0 4.0 0.01 0.20 0.01 85 1008.8
20260507054536 53 276 3.0 9.0 0.01 0.20 0.01 85 1008.4
20260507053041 54 292 1.0 8.0 0.00 0.19 0.00 84 1008.2
20260507051535 54 314 2.0 8.0 0.00 0.19 0.00 85 1008.3
20260507050033 54 311 3.0 9.0 0.00 0.19 0.00 87 1008.3
20260507044535 54 291 1.0 7.0 0.00 0.19 0.00 88 1008.3
20260507043037 54 328 3.0 7.0 0.00 0.19 0.00 88 1008.4
20260507041533 55 289 2.0 4.0 0.00 0.19 0.00 89 1008.7
20260507040035 55 318 1.0 7.0 0.00 0.19 0.00 89 1008.5
20260507034530 55 338 1.0 5.0 0.00 0.19 0.19 90 1008.3
20260507033036 55 275 3.0 6.0 0.00 0.19 0.19 90 1008.2
20260507031535 55 315 1.0 7.0 0.00 0.19 0.19 90 1007.9
20260507030035 56 298 1.0 4.0 0.02 0.19 0.19 90 1008.4
20260507024535 56 308 1.0 6.0 0.10 0.19 0.19 90 1008.6
20260507023033 57 302 2.0 6.0 0.10 0.19 0.19 90 1008.6
20260507021532 58 341 2.0 8.0 0.10 0.19 0.19 90 1008.4
20260507020035 59 0 1.0 5.0 0.08 0.17 0.17 91 1008.3
20260507014535 58 0 0.0 0.0 0.00 0.09 0.09 91 1007.6
20260507013038 58 0 0.0 0.0 0.00 0.09 0.09 91 1007.7
20260507011539 58 0 0.0 0.0 0.00 0.09 0.09 91 1007.5
20260507010031 58 0 0.0 0.0 0.00 0.09 0.09 91 1007.4
20260507004530 58 0 0.0 0.0 0.00 0.09 0.09 91 1007.3
20260507003035 59 0 0.0 0.0 0.00 0.09 0.09 91 1007.2
20260507001546 59 0 0.0 2.0 0.00 0.09 0.09 91 1007.2
20260507000038 59 0 0.0 0.0 0.00 0.09 0.09 91 1007.2
20260506234541 60 0 0.0 0.0 0.00 0.09 0.09 91 1006.9
20260506233035 60 0 0.0 2.0 0.00 0.09 0.09 91 1007.2
20260506231537 59 0 0.0 0.0 0.00 0.09 0.09 91 1007.2
20260506230035 59 0 0.0 0.0 0.00 0.09 0.09 91 1007.1
20260506224534 59 0 0.0 0.0 0.00 0.09 0.09 91 1006.9
20260506223031 59 0 0.0 0.0 0.00 0.09 0.09 91 1006.9
20260506221530 59 0 0.0 0.0 0.00 0.09 0.09 91 1006.8
20260506220030 59 0 0.0 0.0 0.00 0.09 0.09 91 1006.7
20260506214535 59 0 0.0 0.0 0.00 0.09 0.09 90 1006.7
20260506213034 59 153 0.0 4.0 0.00 0.09 0.09 90 1006.5
20260506211536 59 0 1.0 5.0 0.00 0.09 0.09 90 1006.7
20260506210035 59 141 1.0 5.0 0.01 0.09 0.09 90 1006.4
20260506204536 59 116 1.0 4.0 0.02 0.09 0.09 90 1006.2
20260506203057 60 201 1.0 8.0 0.02 0.09 0.09 89 1006.3
20260506201534 60 251 3.0 8.0 0.03 0.09 0.09 90 1006.6
20260506200044 58 242 2.0 7.0 0.02 0.08 0.08 90 1006.8
20260506194532 58 111 0.0 4.0 0.01 0.07 0.07 89 1007.1
20260506193030 58 0 1.0 4.0 0.01 0.07 0.07 89 1007.3
20260506191535 59 159 2.0 5.0 0.00 0.06 0.06 88 1007.2
20260506190044 59 102 1.0 9.0 0.01 0.06 0.06 88 1007.1
20260506184533 59 133 1.0 5.0 0.01 0.06 0.06 88 1007.3
20260506183036 59 126 2.0 5.0 0.03 0.06 0.06 88 1007.4
20260506181534 59 229 1.0 8.0 0.03 0.06 0.06 89 1007.7
20260506180036 59 229 2.0 5.0 0.03 0.05 0.05 88 1007.9
20260506174534 58 216 3.0 9.0 0.04 0.05 0.05 87 1007.7
20260506173037 59 209 1.0 6.0 0.03 0.03 0.03 87 1007.7
20260506171535 59 154 1.0 8.0 0.03 0.03 0.03 86 1008.1
20260506170032 59 169 3.0 9.0 0.02 0.02 0.02 85 1008.4
20260506164538 59 155 1.0 7.0 0.01 0.01 0.01 83 1008.5
20260506163053 61 149 3.0 8.0 0.00 0.00 0.00 79 1009.0
20260506161530 62 165 2.0 11.0 0.00 0.00 0.00 76 1009.5
20260506160030 62 122 3.0 9.0 0.00 0.00 0.00 76 1009.0
20260506154541 62 153 3.0 7.0 0.00 0.00 0.00 75 1009.2
20260506153034 64 171 1.0 6.0 0.00 0.00 0.00 73 1009.4
20260506151540 65 159 1.0 7.0 0.00 0.00 0.00 71 1009.5
20260506150038 66 147 2.0 7.0 0.00 0.00 0.00 69 1009.4
20260506144530 65 266 2.0 7.0 0.00 0.00 0.00 71 1009.2
20260506143034 64 128 3.0 9.0 0.00 0.00 0.00 71 1009.3
20260506141533 64 226 4.0 10.0 0.00 0.00 0.00 72 1009.3
20260506140036 64 163 4.0 10.0 0.00 0.00 0.00 71 1009.5